Results By Division


Marshman® Triathlon Presented by Kinetic PT

Race Date: Sunday September 18, 2011
Description: 1/4 Mile Swim~12.5 Mile Bike~2 Mile Run
Race Category: Sprint Triathlon
# Entrants in Division: 34

Choose:
 Division
Place
Overall
Place
NameCityStateRace AgeGenderDivisionTimeBib#
View 1 1 Saunders, Blair Newark DE 46 M 45-49 0:54:31 180
View 2 6 Clark, Brooks West Chester PA 45 M 45-49 0:58:19 165
View 3 11 Carey, Shawn West Chester PA 46 M 45-49 1:00:24 178
View 4 23 Day, Daniel Lancaster PA 49 M 45-49 1:02:39 456
View 5 26 Levy, Tom Sinking Spring PA 46 M 45-49 1:03:42 457
View 6 30 Markle, Jeffrey Glenmoore PA 47 M 45-49 1:04:11 147
View 7 40 Smith, Cameron Lafayette Hill PA 49 M 45-49 1:05:22 158
View 8 59 Manzella, Joseph Macungie PA 47 M 45-49 1:07:55 174
View 9 79 Silvera, David Bryn Mawr PA 47 M 45-49 1:11:09 163
View 10 84 Fenimore, David Coatesville PA 47 M 45-49 1:11:47 167
View 11 88 Wnenchak, Ray Newark DE 49 M 45-49 1:12:05 168
View 12 89 Connelly, Michael Limerick PA 46 M 45-49 1:12:05 170
View 13 97 Kelly, Stephen West Chester PA 47 M 45-49 1:12:43 157
View 14 100 Glysing-jensen, Troels Chester Springs PA 45 M 45-49 1:12:54 156
View 15 113 Brocious, Mike Downingtown PA 47 M 45-49 1:14:50 177
View 16 114 Eliason, Mark Media PA 49 M 45-49 1:14:52 148
View 17 120 Kedra, Charles Downingtown PA 47 M 45-49 1:15:12 179
View 18 141 Lamastra, Carl Royersford PA 47 M 45-49 1:16:46 150
View 19 145 Mannello, Edward West Chester PA 45 M 45-49 1:17:06 173
View 20 170 Ginaldi, Jules Furlong PA 45 M 45-49 1:19:02 149
View 21 205 Hermans, Hans Downingtown PA 47 M 45-49 1:22:26 169
View 22 233 Lobb, Daniel Glenmoore PA 46 M 45-49 1:24:11 171
View 23 236 De Long, Keith Reading PA 49 M 45-49 1:24:16 176
View 24 241 Basquill, Kevin Annapolis MD 49 M 45-49 1:25:00 162
View 25 272 Dunning, Britt Wallingford PA 45 M 45-49 1:28:48 175
View 26 275 McCabe, James Mt Laurel NJ 49 M 45-49 1:29:32 480
View 27 289 Litzenberg, Scott Kennett Square PA 49 M 45-49 1:31:07 172
View 28 306 Schulz, Randy Phoenixville PA 45 M 45-49 1:32:34 160
View 29 311 Greer, J. Roger Coatesville PA 45 M 45-49 1:33:31 154
View 30 319 Tiffany, Scott Norristown PA 45 M 45-49 1:34:40 153
View 31 330 Pomento, Brian Phoenixville PA 47 M 45-49 1:35:38 155
View 32 342 Anastasi, Vincent West Chester PA 49 M 45-49 1:37:04 166
View 33 356 Liu, Jimmy West Chester PA 45 M 45-49 1:42:11 159
View 34 385 Izzi, Mike Feasterville PA 47 M 45-49 1:49:43 164